Weather History for Adak, AK

Change the Weather History Date:

Thursday, November 15, 2012

  Actual Average Record
Temperature  
Mean Temperature 42 °F -  
Max Temperature 48 °F 42 °F 54 °F (1970)
Min Temperature 37 °F 32 °F 16 °F (1964)
Degree Days  
Heating Degree Days 22    
Moisture  
Dew Point 42 °F    
Average Humidity 91    
Maximum Humidity 100    
Minimum Humidity 87    
Precipitation  
Precipitation 0.00 in - - ()
Sea Level Pressure  
Sea Level Pressure 29.98 in    
Wind  
Wind Speed 8 mph (South)    
Max Wind Speed 30 mph    
Max Gust Speed 36 mph    
Visibility 9 miles    
Events      
Averages and records for this station are not official NWS values.
T = Trace of Precipitation, MM = Missing Value Source: NWS Daily Summary

Daily Weather History Graph

Daily Weather History Graph

Search for Another Location

Airport:

Trip Planner

Search our weather history database for the weather conditions in past years. The results will help you decide how hot, cold, wet, or windy it might be!

Date:

Astronomy

Nov. 15, 2012 Rise Set
Actual Time 9:07 AM HAST 5:54 PM HAST
Civil Twilight 8:29 AM HAST 6:32 PM HAST
Nautical Twilight 7:48 AM HAST 7:13 PM HAST
Astronomical Twilight 7:09 AM HAST 7:52 PM HAST
Moon 11:27 AM HAST (11/15) 7:53 PM HAST (11/15)
Length of Visible Light 10h 02m
Length of Day
8h 47m
Waxing Crescent, 6% of the Moon is Illuminated
Nov 15
Waxing Crescent
Nov 20
First Quarter
Nov 28
Full
Dec 6
Last Quarter
Dec 12
New

Hourly Weather History & Observations

Time (HAST) Temp. Windchill Dew Point Humidity Pressure Visibility Wind Dir Wind Speed Gust Speed Precip Events Conditions
12:16 AM 39.2 °F - 35.6 °F 87% 30.02 in 4.0 mi Calm Calm - N/A   Overcast
12:36 AM 37.4 °F - 35.6 °F 93% 30.02 in 5.0 mi Calm Calm - N/A   Overcast
12:56 AM 37.4 °F - 35.6 °F 93% 30.02 in 3.0 mi Calm Calm - N/A   Overcast
1:16 AM 37.4 °F - 35.6 °F 93% 30.03 in 3.0 mi Calm Calm - N/A   Overcast
1:36 AM 37.4 °F - 35.6 °F 93% 30.02 in 5.0 mi Calm Calm - N/A   Overcast
1:56 AM 37.4 °F 34.9 °F 35.6 °F 93% 30.03 in 5.0 mi North 3.5 mph - N/A   Overcast
2:16 AM 37.4 °F - 37.4 °F 100% 30.04 in 5.0 mi Calm Calm - N/A   Overcast
2:36 AM 39.2 °F 35.0 °F 37.4 °F 93% 30.04 in 10.0 mi North 5.8 mph - N/A   Overcast
2:56 AM 37.4 °F 33.8 °F 37.4 °F 100% 30.03 in 10.0 mi NNE 4.6 mph - N/A   Overcast
3:16 AM 37.4 °F 32.8 °F 35.6 °F 93% 30.03 in 10.0 mi North 5.8 mph - N/A   Overcast
3:36 AM 37.4 °F 33.8 °F 35.6 °F 93% 30.03 in 10.0 mi NNW 4.6 mph - N/A   Overcast
3:56 AM 37.4 °F - 37.4 °F 100% 30.04 in 10.0 mi Calm Calm - N/A   Overcast
4:16 AM 37.4 °F 32.8 °F 35.6 °F 93% 30.04 in 10.0 mi North 5.8 mph - N/A   Overcast
4:36 AM 37.4 °F - 35.6 °F 93% 30.04 in 10.0 mi Calm Calm - N/A   Mostly Cloudy
4:56 AM 39.2 °F - 37.4 °F 93% 30.04 in 10.0 mi Calm Calm - N/A   Overcast
5:16 AM 39.2 °F 32.0 °F 37.4 °F 93% 30.04 in 10.0 mi SE 11.5 mph - N/A   Overcast
5:36 AM 41.0 °F - 39.2 °F 93% 30.04 in 10.0 mi Calm Calm - N/A   Overcast
5:56 AM 41.0 °F 37.1 °F 39.2 °F 93% 30.04 in 10.0 mi ESE 5.8 mph - N/A   Overcast
6:16 AM 41.0 °F 34.3 °F 39.2 °F 93% 30.04 in 10.0 mi SE 11.5 mph - N/A   Overcast
6:36 AM 41.0 °F - 39.2 °F 93% 30.04 in 10.0 mi Calm Calm - N/A   Overcast
6:56 AM 42.8 °F - 39.2 °F 87% 30.04 in 10.0 mi Calm Calm - N/A   Overcast
7:16 AM 42.8 °F 36.2 °F 39.2 °F 87% 30.04 in 10.0 mi SE 12.7 mph - N/A   Overcast
7:36 AM 42.8 °F 37.0 °F 39.2 °F 87% 30.04 in 10.0 mi South 10.4 mph 18.4 mph N/A   Overcast
7:56 AM 42.8 °F 35.4 °F 39.2 °F 87% 30.04 in 10.0 mi South 15.0 mph - N/A   Overcast
8:16 AM 42.8 °F 36.2 °F 39.2 °F 87% 30.03 in 10.0 mi SSE 12.7 mph - N/A   Overcast
8:36 AM 42.8 °F 40.1 °F 39.2 °F 87% 30.03 in 9.0 mi SSE 4.6 mph - N/A   Overcast
8:56 AM 42.8 °F 37.5 °F 41.0 °F 93% 30.03 in 10.0 mi SE 9.2 mph - N/A   Overcast
9:16 AM 44.6 °F 39.7 °F 41.0 °F 87% 30.04 in 7.0 mi SSE 9.2 mph - N/A   Overcast
9:36 AM 44.6 °F 39.2 °F 42.8 °F 93% 30.04 in 6.0 mi SE 10.4 mph - N/A   Overcast
9:56 AM 44.6 °F 37.4 °F 41.0 °F 87% 30.04 in 9.0 mi South 16.1 mph 26.5 mph N/A   Overcast
10:16 AM 44.6 °F 36.9 °F 41.0 °F 87% 30.04 in 10.0 mi South 18.4 mph - N/A   Mostly Cloudy
10:36 AM 44.6 °F 39.2 °F 42.8 °F 93% 30.04 in 10.0 mi South 10.4 mph - N/A   Overcast
10:56 AM 46.4 °F 39.5 °F 44.6 °F 93% 30.03 in 10.0 mi South 17.3 mph - N/A   Overcast
11:16 AM 46.4 °F 40.4 °F 44.6 °F 93% 30.02 in 10.0 mi South 13.8 mph 18.4 mph N/A   Overcast
11:36 AM 46.4 °F 38.5 °F 42.8 °F 87% 30.03 in 10.0 mi South 21.9 mph 27.6 mph N/A   Overcast
11:56 AM 46.4 °F 39.2 °F 42.8 °F 87% 30.03 in 10.0 mi South 18.4 mph - N/A   Overcast
12:16 PM 46.4 °F 38.5 °F 42.8 °F 87% 30.02 in 10.0 mi South 21.9 mph - N/A   Overcast
12:36 PM 46.4 °F 39.8 °F 42.8 °F 87% 30.01 in 10.0 mi South 16.1 mph - N/A   Overcast
12:56 PM 46.4 °F 39.2 °F 44.6 °F 93% 30.01 in 9.0 mi SSE 18.4 mph - N/A   Overcast
1:16 PM 46.4 °F 39.2 °F 44.6 °F 93% 30.00 in 10.0 mi South 18.4 mph - N/A   Overcast
1:36 PM 46.4 °F 39.0 °F 44.6 °F 93% 30.00 in 10.0 mi South 19.6 mph - N/A   Mostly Cloudy
1:56 PM 46.4 °F 39.8 °F 44.6 °F 93% 30.00 in 10.0 mi South 16.1 mph - N/A   Mostly Cloudy
2:16 PM 46.4 °F 40.4 °F 44.6 °F 93% 29.99 in 10.0 mi South 13.8 mph - N/A   Overcast
2:36 PM 46.4 °F 40.4 °F 44.6 °F 93% 29.99 in 9.0 mi SSE 13.8 mph - N/A   Overcast
2:56 PM 46.4 °F 41.5 °F 44.6 °F 93% 29.97 in 8.0 mi SSE 10.4 mph - N/A   Overcast
3:16 PM 48.2 °F - 46.4 °F 93% 29.96 in 8.0 mi SSE 11.5 mph - N/A   Overcast
3:36 PM 48.2 °F - 46.4 °F 93% 29.95 in 10.0 mi South 15.0 mph 20.7 mph N/A   Mostly Cloudy
3:56 PM 48.2 °F - 44.6 °F 87% 29.95 in 10.0 mi South 12.7 mph 20.7 mph N/A   Overcast
4:16 PM 48.2 °F - 44.6 °F 87% 29.94 in 10.0 mi South 16.1 mph - N/A   Overcast
4:36 PM 48.2 °F - 44.6 °F 87% 29.94 in 10.0 mi South 13.8 mph 17.3 mph N/A   Overcast
4:56 PM 48.2 °F - 44.6 °F 87% 29.93 in 10.0 mi South 18.4 mph 23.0 mph N/A   Overcast
5:16 PM 48.2 °F - 44.6 °F 87% 29.92 in 10.0 mi South 21.9 mph 26.5 mph N/A   Overcast
5:36 PM 48.2 °F - 46.4 °F 93% 29.93 in 7.0 mi South 18.4 mph - N/A   Mostly Cloudy
5:56 PM 48.2 °F - 46.4 °F 93% 29.93 in 6.0 mi South 17.3 mph - N/A   Overcast
6:16 PM 48.2 °F - 46.4 °F 93% 29.89 in 6.0 mi South 26.5 mph - N/A   Mostly Cloudy
6:36 PM 48.2 °F - 44.6 °F 87% 29.88 in 9.0 mi SSW 25.3 mph 32.2 mph N/A   Mostly Cloudy
6:56 PM 46.4 °F 37.2 °F 44.6 °F 93% 29.88 in 3.0 mi South 29.9 mph 35.7 mph N/A   Overcast
7:16 PM 46.4 °F 38.3 °F 44.6 °F 93% 29.90 in 5.0 mi South 23.0 mph - N/A   Overcast
7:36 PM 46.4 °F 39.2 °F 44.6 °F 93% 29.90 in 10.0 mi South 18.4 mph 24.2 mph N/A   Overcast
7:56 PM 46.4 °F 39.0 °F 44.6 °F 93% 29.89 in 10.0 mi South 19.6 mph - N/A   Overcast
8:16 PM 46.4 °F 39.0 °F 44.6 °F 93% 29.88 in 10.0 mi South 19.6 mph 24.2 mph N/A   Overcast
8:36 PM 46.4 °F 38.7 °F 44.6 °F 93% 29.87 in 10.0 mi South 20.7 mph - N/A   Overcast
8:56 PM 48.2 °F - 44.6 °F 87% 29.87 in 10.0 mi South 19.6 mph - N/A   Overcast
9:16 PM 46.4 °F 39.2 °F 44.6 °F 93% 29.86 in 10.0 mi South 18.4 mph - N/A   Overcast
9:36 PM 46.4 °F 40.1 °F 44.6 °F 93% 29.86 in 10.0 mi South 15.0 mph - N/A   Overcast
10:16 PM 48.2 °F - 44.6 °F 87% 29.87 in 10.0 mi South 18.4 mph 26.5 mph N/A   Overcast
10:36 PM 46.4 °F 39.0 °F 44.6 °F 93% 29.86 in 10.0 mi South 19.6 mph - N/A   Overcast
10:56 PM 48.2 °F - 46.4 °F 93% 29.84 in 10.0 mi South 13.8 mph - N/A   Overcast
11:16 PM 48.2 °F - 44.6 °F 87% 29.83 in 10.0 mi South 13.8 mph - N/A   Overcast
11:36 PM 46.4 °F 40.4 °F 42.8 °F 87% 29.84 in 10.0 mi South 13.8 mph - N/A   Overcast
11:56 PM 48.2 °F - 44.6 °F 87% 29.83 in 9.0 mi South 16.1 mph - N/A   Overcast